Grosseto, Italy

7:29 PM CET on March 25, 2017 (GMT +0100)
Grosseto Mil

Weather History for LIRS - July, 2013

Change the Weather History Date:

Monday, July 22, 2013

  Actual Average Record
Temperature  
Mean Temperature 82 °F -  
Max Temperature 95 °F 86 °F 99 °F (2015)
Min Temperature 69 °F 63 °F 59 °F (2001)
Cooling Degree Days 17    
Growing Degree Days 32 (Base 50)    
Moisture  
Dew Point 60 °F    
Average Humidity 52    
Maximum Humidity 94    
Minimum Humidity 13    
Precipitation  
Precipitation 0.00 in 0.04 in - ()
Sea Level Pressure  
Sea Level Pressure 29.97 in    
Wind  
Wind Speed 5 mph ()    
Max Wind Speed 12 mph    
Max Gust Speed -    
Visibility 12.0 miles    
Events      
Averages and records for this station are not official NWS values.
T = Trace of Precipitation, MM = Missing Value Source: Averaged Metar Reports

Daily Weather History Graph

Daily Weather History Graph

Search for Another Location

Airport or City:

Trip Planner

Search our weather history database for the weather conditions in past years. The results will help you decide how hot, cold, wet, or windy it might be!

Date:

Astronomy

Jul. 22, 2013 Rise Set
Actual Time 5:57 AM CEST 8:46 PM CEST
Civil Twilight 5:24 AM CEST 9:19 PM CEST
Nautical Twilight 4:42 AM CEST 10:01 PM CEST
Astronomical Twilight 3:53 AM CEST 10:49 PM CEST
Moon 8:17 PM CEST (7/22) 5:34 AM CEST (7/22)
Length of Visible Light 15h 55m
Length of Day
14h 49m
Full, 100% of the Moon is Illuminated
Jul 22
Full
Jul 22
Full
Jul 29
Last Quarter
Aug 6
New
Aug 14
First Quarter

Hourly Weather History & Observations

Time (CEST) Temp. Heat Index Dew Point Humidity Pressure Visibility Wind Dir Wind Speed Gust Speed Precip Events Conditions
12:55 AM 75.2 °F - 68.0 °F 78% 30.01 in - NNE 5.8 mph - N/A   Clear
1:55 AM 73.4 °F - 68.0 °F 83% 30.01 in - North - - N/A   Clear
2:00 AM 74 °F - 68 °F 76% 30.01 in 12 mi NE 6.9 mph - -  
2:55 AM 69.8 °F - 66.2 °F 88% 30.01 in - North - - N/A   Clear
4:55 AM 69.8 °F - 66.2 °F 88% 30.01 in - North - - N/A   Clear
5:55 AM 69.8 °F - 68.0 °F 94% 30.01 in - North - - N/A   Clear
6:55 AM 69.8 °F - 66.2 °F 88% 30.01 in - North - - N/A   Clear
7:55 AM 69.8 °F - 64.4 °F 83% 30.01 in - North - - N/A   Clear
8:00 AM 70 °F - 65 °F 80% 30.01 in 12 mi NE 5.8 mph - -  
8:55 AM 73.4 °F - 62.6 °F 69% 30.01 in - North - - N/A   Clear
9:55 AM 78.8 °F - 59.0 °F 51% 30.01 in - North - - N/A   Clear
10:55 AM 84.2 °F 83.0 °F 55.4 °F 37% 29.98 in - North - - N/A   Clear
11:55 AM 91.4 °F - 50.0 °F 24% 29.98 in - North - - N/A   Clear
12:55 PM 93.2 °F - 48.2 °F 21% 29.95 in - North - - N/A   Clear
1:55 PM 95.0 °F - 50.0 °F 22% 29.95 in - North - - N/A   Partly Cloudy
2:00 PM 94 °F - 50 °F 13% 29.95 in 25 mi North 11.5 mph - -   Scattered Clouds
2:55 PM 95.0 °F - 44.6 °F 18% 29.95 in - North - - N/A   Partly Cloudy
3:55 PM 91.4 °F 90.7 °F 59.0 °F 34% 29.92 in - North - - N/A   Partly Cloudy
4:55 PM 91.4 °F 91.4 °F 60.8 °F 36% 29.92 in - North - - N/A   Partly Cloudy
5:55 PM 93.2 °F 91.9 °F 57.2 °F 30% 29.92 in - North - - N/A   Scattered Clouds
6:55 PM 91.4 °F 89.4 °F 55.4 °F 29% 29.89 in - North - - N/A   Partly Cloudy
7:55 PM 91.4 °F 89.9 °F 57.2 °F 31% 29.89 in - North - - N/A   Partly Cloudy
8:00 PM 91 °F - 58 °F 23% 29.91 in 25 mi NW 4.6 mph - -   Scattered Clouds
8:55 PM 86.0 °F 84.9 °F 57.2 °F 37% 29.92 in - North - - N/A   Partly Cloudy
9:55 PM 82.4 °F 82.5 °F 59.0 °F 45% 29.92 in - North - - N/A   Partly Cloudy
10:55 PM 84.2 °F 89.6 °F 71.6 °F 66% 29.95 in - North - - N/A   Clear
11:55 PM 78.8 °F - 64.4 °F 61% 29.95 in - North - - N/A   Clear